| time (UTC) | temp F | wind direction | speed MPH | gust MPH | rain 1hr in | rain 24hr in | rain mn in | humidity % | barometer mb |
| 20260505021630 | 37 | 94 | 1.0 | 3.0 | 0.00 | 0.00 | 0.00 | 83 | 1007.6 |
| 20260505020030 | 37 | 60 | 1.0 | 2.0 | 0.00 | 0.00 | 0.00 | 87 | 1007.5 |
| 20260505014532 | 38 | 60 | 1.0 | 2.0 | 0.00 | 0.00 | 0.00 | 86 | 1007.2 |
| 20260505013030 | 38 | 59 | 0.0 | 1.0 | 0.00 | 0.00 | 0.00 | 87 | 1007.0 |
| 20260505011530 | 39 | 60 | 1.0 | 2.0 | 0.00 | 0.00 | 0.00 | 88 | 1007.2 |
| 20260505010029 | 40 | 59 | 0.0 | 1.0 | 0.00 | 0.00 | 0.00 | 88 | 1007.1 |
| 20260505004539 | 40 | 59 | 0.0 | 1.0 | 0.00 | 0.00 | 0.00 | 87 | 1007.3 |
| 20260505003027 | 40 | 53 | 0.0 | 1.0 | 0.00 | 0.00 | 0.00 | 85 | 1007.3 |
| 20260505001526 | 40 | 49 | 0.0 | 1.0 | 0.00 | 0.00 | 0.00 | 85 | 1007.4 |
| 20260505000026 | 40 | 50 | 0.0 | 1.0 | 0.00 | 0.00 | 0.00 | 85 | 1007.6 |
| 20260504234530 | 40 | 67 | 0.0 | 2.0 | 0.00 | 0.00 | 0.00 | 86 | 1007.6 |
| 20260504233025 | 39 | 78 | 0.0 | 1.0 | 0.00 | 0.00 | 0.00 | 87 | 1007.6 |
| 20260504231537 | 39 | 50 | 0.0 | 2.0 | 0.00 | 0.00 | 0.00 | 88 | 1007.7 |
| 20260504230024 | 38 | 42 | 0.0 | 0.0 | 0.00 | 0.00 | 0.00 | 91 | 1007.2 |
| 20260504224523 | 37 | 43 | 0.0 | 2.0 | 0.00 | 0.00 | 0.00 | 90 | 1007.1 |
| 20260504223023 | 36 | 100 | 1.0 | 7.0 | 0.00 | 0.00 | 0.00 | 88 | 1007.1 |
| 20260504221524 | 39 | 150 | 1.0 | 7.0 | 0.00 | 0.00 | 0.00 | 86 | 1007.6 |
| 20260504220021 | 41 | 54 | 0.0 | 1.0 | 0.00 | 0.00 | 0.00 | 86 | 1007.0 |
| 20260504214526 | 41 | 49 | 0.0 | 0.0 | 0.00 | 0.00 | 0.00 | 85 | 1006.8 |
| 20260504213019 | 40 | 47 | 0.0 | 2.0 | 0.00 | 0.00 | 0.00 | 87 | 1006.9 |
| 20260504211517 | 39 | 338 | 0.0 | 2.0 | 0.00 | 0.00 | 0.00 | 90 | 1007.3 |
| 20260504210017 | 38 | 347 | 0.0 | 5.0 | 0.00 | 0.00 | 0.00 | 89 | 1008.1 |
| 20260504204537 | 39 | 81 | 4.0 | 10.0 | 0.00 | 0.00 | 0.00 | 82 | 1008.3 |
| 20260504203017 | 42 | 34 | 0.0 | 4.0 | 0.00 | 0.00 | 0.00 | 79 | 1007.2 |
| 20260504201516 | 42 | 46 | 0.0 | 5.0 | 0.00 | 0.00 | 0.00 | 77 | 1007.3 |
| 20260504200018 | 43 | 91 | 1.0 | 4.0 | 0.00 | 0.00 | 0.00 | 82 | 1007.2 |
| 20260504194514 | 42 | 45 | 0.0 | 3.0 | 0.00 | 0.00 | 0.00 | 82 | 1007.4 |
| 20260504193021 | 42 | 360 | 1.0 | 6.0 | 0.00 | 0.00 | 0.00 | 88 | 1007.5 |
| 20260504191513 | 40 | 354 | 1.0 | 6.0 | 0.00 | 0.00 | 0.00 | 88 | 1007.7 |
| 20260504190012 | 41 | 18 | 2.0 | 8.0 | 0.00 | 0.00 | 0.00 | 85 | 1007.5 |
| 20260504184510 | 42 | 22 | 0.0 | 3.0 | 0.00 | 0.00 | 0.00 | 87 | 1007.7 |
| 20260504183009 | 41 | 70 | 0.0 | 2.0 | 0.00 | 0.00 | 0.00 | 89 | 1007.9 |
| 20260504181510 | 39 | 79 | 0.0 | 3.0 | 0.00 | 0.00 | 0.00 | 89 | 1008.4 |
| 20260504180007 | 38 | 334 | 1.0 | 4.0 | 0.00 | 0.00 | 0.00 | 94 | 1008.7 |
| 20260504174506 | 35 | 286 | 0.0 | 3.0 | 0.00 | 0.00 | 0.00 | 93 | 1008.7 |
| 20260504173006 | 34 | 276 | 0.0 | 1.0 | 0.00 | 0.00 | 0.00 | 90 | 1009.4 |
| 20260504171518 | 35 | 229 | 0.0 | 6.0 | 0.00 | 0.00 | 0.00 | 85 | 1009.6 |
| 20260504081544 | 34 | 83 | 0.0 | 0.0 | 0.00 | 0.00 | 0.00 | 60 | 1011.7 |
| 20260504050024 | 37 | 83 | 1.0 | 2.0 | 0.00 | 0.00 | 0.00 | 52 | 1012.1 |
| 20260504044526 | 38 | 80 | 1.0 | 2.0 | 0.00 | 0.00 | 0.00 | 51 | 1012.1 |
| 20260504043022 | 38 | 80 | 0.0 | 1.0 | 0.00 | 0.00 | 0.00 | 49 | 1012.1 |
| 20260504041521 | 39 | 80 | 0.0 | 1.0 | 0.00 | 0.00 | 0.00 | 49 | 1012.1 |
| 20260504040023 | 39 | 80 | 1.0 | 2.0 | 0.00 | 0.00 | 0.00 | 48 | 1012.1 |
| 20260504034520 | 40 | 80 | 0.0 | 2.0 | 0.00 | 0.00 | 0.00 | 46 | 1012.1 |
| 20260504033023 | 41 | 79 | 1.0 | 2.0 | 0.00 | 0.00 | 0.00 | 44 | 1011.9 |
| 20260504031520 | 41 | 79 | 1.0 | 2.0 | 0.00 | 0.00 | 0.00 | 45 | 1011.9 |
| 20260504030030 | 42 | 79 | 1.0 | 2.0 | 0.00 | 0.00 | 0.00 | 43 | 1011.9 |
| 20260504024519 | 42 | 79 | 1.0 | 2.0 | 0.00 | 0.00 | 0.00 | 44 | 1011.8 |
| 20260504023019 | 43 | 79 | 0.0 | 1.0 | 0.00 | 0.00 | 0.00 | 45 | 1011.7 |